Temp
14 13 14 14 13 13 13 13 14 14 14 14 14 14 13 13 13 13 12 13 13 13
13 13 13 13 13 13 13 13 13 13 13 13 14 13 13 13 13 12 12 12 13 13
12 13 13 13 12 12 12 11 12 13 11 12 13 13 13 12 12 12 12 12 12 12
11 11 11 11 10 10 10 10 11 10 10 11 12 12 12 12 12 12 12 12 12 12
11 10 10 11 11 10 10 10 9 9 10 11 12 12 12 12 11 12 12 12 12 12
11 10 10 10 10 11 11 10 10 9 10 10 11 12 12 12 12 12 12 12 12 12
6 9 10 11 10 10 10 10 10 9 10 10 11 12 12 12 12 12 12 12 12 12
4 6 9 10 10 10 10 10 10 10 10 10 10 11 11 12 12 12 11 11 11 11
2 4 5 7 9 10 10 10 10 9 9 10 9 10 10 10 10 10 10 11 10 10
1 1 3 4 6 7 8 10 10 10 10 10 10 10 10 9 9 9 8 8 8 8
-0 0 1 2 3 5 5 7 8 9 9 9 9 9 9 9 8 8 8 8 8 7
-1 -1 0 1 1 3 4 5 6 6 7 8 8 8 8 8 7 7 7 7 7 7
-2 -1 -1 -0 0 1 2 3 5 5 6 6 7 7 7 7 8 7 7 7 6 6
-3 -2 -1 -1 -0 1 2 3 4 4 5 5 6 6 6 7 7 7 6 6 5 5
Height
760 762 765 768 771 775 779 783 788 793 798 802 806 810 815 820 824 828 833 836 839 843
756 757 758 760 762 766 770 776 781 786 793 798 800 805 809 814 819 823 827 832 835 839
752 753 752 754 756 759 763 769 774 780 787 793 799 803 806 809 814 818 822 826 830 834
751 752 751 750 754 758 760 766 770 775 779 789 792 798 802 806 810 814 817 822 825 829
750 751 752 750 753 758 761 765 770 774 776 783 787 793 797 800 805 808 812 816 820 823
751 752 752 753 756 754 759 764 768 773 776 778 780 786 792 796 799 804 806 810 814 818
753 753 753 753 754 757 759 758 762 769 774 774 779 784 789 790 793 798 803 805 809 814
757 755 752 755 756 758 759 760 761 765 771 773 777 781 786 788 791 794 797 802 805 808
761 756 757 753 753 757 760 761 761 764 768 772 774 777 781 785 786 790 792 798 801 804
763 762 762 760 758 757 759 760 762 764 769 773 775 775 777 780 783 784 789 791 794 797
771 769 769 765 762 761 763 762 763 765 767 770 771 774 775 778 780 783 785 787 790 794
778 774 772 769 769 769 769 767 767 767 769 770 772 773 775 777 779 781 783 786 788 790
784 782 780 777 773 773 774 772 770 770 771 772 773 774 775 776 776 779 780 782 784 788
787 785 783 780 778 777 775 773 771 770 771 772 773 774 774 775 776 775 779 781 782 782
Wind_Speed
31 34 35 38 34 34 35 38 45 46 44 44 44 43 42 43 41 41 37 37 36 32
17 24 28 33 39 38 37 35 40 42 39 42 45 43 42 42 42 41 38 37 38 33
7 11 18 29 30 33 34 33 37 43 41 40 41 42 40 40 40 37 38 35 35 34
6 8 13 20 23 26 32 33 36 40 40 37 40 40 39 37 38 38 36 35 34 34
5 8 13 20 22 22 23 24 22 29 33 37 38 39 39 38 35 36 37 37 36 35
4 7 11 16 18 21 22 22 24 25 28 33 32 36 39 41 38 37 37 37 37 38
23 9 12 15 17 20 21 25 25 26 28 27 32 34 37 36 36 35 36 35 34 36
25 23 12 14 14 16 16 20 26 24 25 25 25 28 32 32 32 31 30 31 32 33
26 27 25 21 13 11 15 16 14 16 27 27 27 30 29 26 23 24 26 27 24 23
28 27 27 23 22 20 11 10 17 17 18 18 19 18 19 22 27 29 31 29 29 25
27 26 24 24 24 21 18 16 8 5 9 11 11 11 11 12 15 15 17 19 20 22
24 24 26 26 24 20 16 14 12 9 6 3 1 3 7 10 14 15 13 13 15 17
20 20 21 22 21 18 16 13 11 8 6 3 1 2 4 6 9 12 12 12 12 14
22 19 20 18 19 17 16 14 11 11 9 6 3 2 3 8 11 11 13 14 13 13
Wind_Direction
216 210 209 211 207 201 201 200 205 204 205 204 203 202 204 204 209 211 213 213 211 211
238 231 221 215 207 203 199 198 199 198 201 204 204 203 203 206 211 212 214 216 215 217
237 251 242 224 202 194 191 194 198 202 205 211 209 207 205 204 211 211 214 216 217 220
211 244 200 183 185 185 188 189 197 200 199 210 208 209 208 208 212 214 214 216 217 219
178 207 194 188 188 197 195 188 190 193 192 204 210 211 211 212 214 216 216 218 218 220
178 190 204 195 196 197 199 202 207 207 211 207 210 215 215 217 218 219 221 220 220 222
36 49 204 186 194 198 201 198 194 206 212 211 216 218 218 218 221 223 223 225 227 227
31 43 80 198 197 195 197 215 202 197 200 200 205 211 216 216 216 219 224 228 230 232
28 41 40 68 78 206 201 200 206 199 208 215 225 219 217 218 210 215 217 221 226 229
25 26 33 44 56 65 62 196 209 202 202 211 222 223 220 224 227 228 230 233 233 233
18 21 21 31 38 43 47 59 72 159 190 202 212 212 211 216 225 232 233 233 236 237
16 13 16 23 26 29 30 41 50 57 75 106 140 184 200 204 210 215 218 228 229 233
19 20 17 15 19 23 26 30 40 50 47 46 37 238 231 228 217 222 223 223 230 236
24 19 18 19 21 16 19 20 30 36 37 32 25 314 259 241 234 225 228 228 226 227